TimePST,TemperatureF,Dew PointF,Humidity,Sea Level PressureIn,VisibilityMPH,Wind Direction,Wind SpeedMPH,Gust SpeedMPH,PrecipitationIn,Events,Conditions,WindDirDegrees,DateUTC
12:53 AM,-2.0,-7.1,79,30.21,7.0,ESE,9.2,16.1,N/A,,Overcast,120,2013-12-06 08:53:00
1:53 AM,-2.0,-8.0,76,30.22,7.0,ESE,10.4,18.4,N/A,,Overcast,120,2013-12-06 09:53:00
2:30 AM,-2.2,-7.6,78,29.88,5.0,ESE,8.1,16.1,N/A,,Haze,120,2013-12-06 10:30:00
2:42 AM,-2.2,-9.4,71,29.88,6.0,ESE,9.2,-,N/A,,Haze,120,2013-12-06 10:42:00
2:53 AM,-2.9,-9.0,75,30.23,6.0,ESE,10.4,18.4,N/A,,Haze,110,2013-12-06 10:53:00
2:58 AM,-2.2,-9.4,71,29.87,6.0,ESE,8.1,18.4,N/A,,Haze,120,2013-12-06 10:58:00
3:53 AM,-4.0,-9.9,76,30.25,7.0,ESE,10.4,20.7,N/A,,Overcast,120,2013-12-06 11:53:00
4:53 AM,-5.1,-11.0,76,30.25,9.0,ESE,9.2,19.6,N/A,,Overcast,120,2013-12-06 12:53:00
4:56 AM,-5.8,-11.2,77,29.87,9.0,ESE,10.4,18.4,N/A,,Overcast,110,2013-12-06 12:56:00
5:53 AM,-6.0,-11.0,79,30.26,7.0,ESE,10.4,19.6,N/A,,Overcast,120,2013-12-06 13:53:00
6:53 AM,-7.1,-11.9,79,30.27,8.0,ESE,10.4,19.6,N/A,,Overcast,120,2013-12-06 14:53:00
7:53 AM,-7.1,-13.0,75,30.27,5.0,ESE,11.5,23.0,N/A,,Haze,110,2013-12-06 15:53:00
8:14 AM,-7.6,-11.2,84,29.89,7.0,ESE,12.7,19.6,N/A,,Mostly Cloudy,120,2013-12-06 16:14:00
8:26 AM,-7.6,-13.0,77,29.89,7.0,ESE,10.4,19.6,N/A,,Scattered Clouds,120,2013-12-06 16:26:00
8:53 AM,-6.0,-11.9,75,30.29,8.0,ESE,11.5,19.6,N/A,,Partly Cloudy,120,2013-12-06 16:53:00
9:53 AM,-2.9,-11.0,68,30.28,6.0,ESE,11.5,21.9,N/A,,Haze,120,2013-12-06 17:53:00
10:02 AM,-2.2,-9.4,71,29.91,6.0,ESE,8.1,20.7,N/A,,Haze,120,2013-12-06 18:02:00
10:26 AM,-2.2,-11.2,66,29.90,2.5,ESE,8.1,23.0,N/A,,Haze,120,2013-12-06 18:26:00
10:35 AM,-4.0,-11.2,71,29.90,1.5,ESE,9.2,21.9,0.00,Snow,Light Snow,120,2013-12-06 18:35:00
10:53 AM,-2.9,-9.9,72,30.27,1.8,ESE,9.2,19.6,0.00,Snow,Light Snow,120,2013-12-06 18:53:00
11:00 AM,-2.2,-9.4,71,29.89,2.5,ESE,11.5,20.7,0.00,,Haze,120,2013-12-06 19:00:00
11:12 AM,-0.4,-9.4,66,29.89,1.5,ESE,9.2,20.7,0.00,Snow,Light Snow,120,2013-12-06 19:12:00
11:31 AM,-2.2,-9.4,71,29.89,1.2,ESE,11.5,21.9,0.00,Snow,Light Snow,120,2013-12-06 19:31:00
11:37 AM,-2.2,-9.4,71,29.89,2.0,ESE,10.4,21.9,0.00,Snow,Light Snow,110,2013-12-06 19:37:00
11:53 AM,-2.0,-9.9,69,30.26,3.0,ESE,10.4,19.6,0.00,,Haze,120,2013-12-06 19:53:00
12:39 PM,-0.4,-9.4,66,29.88,4.0,ESE,10.4,21.9,N/A,,Haze,120,2013-12-06 20:39:00
12:49 PM,-0.4,-9.4,66,29.88,2.5,ESE,8.1,16.1,N/A,,Haze,110,2013-12-06 20:49:00
12:50 PM,-0.9,-9.0,69,30.24,2.5,ESE,8.1,16.1,N/A,,Haze,120,2013-12-06 20:50:00
12:57 PM,-2.2,-9.4,71,29.87,1.5,Variable,6.9,-,0.00,Snow,Light Snow,0,2013-12-06 20:57:00
1:06 PM,-2.2,-9.4,71,29.87,1.2,ESE,9.2,-,0.00,Snow,Light Snow,110,2013-12-06 21:06:00
1:12 PM,-2.2,-9.4,71,29.87,1.5,ESE,6.9,-,0.00,Snow,Light Snow,120,2013-12-06 21:12:00
1:27 PM,-2.2,-9.4,71,29.87,2.5,ESE,9.2,18.4,0.00,,Haze,110,2013-12-06 21:27:00
1:45 PM,-2.2,-9.4,71,29.86,3.0,ESE,8.1,17.3,0.00,,Haze,110,2013-12-06 21:45:00
1:53 PM,-2.9,-11.0,68,30.24,3.0,Variable,6.9,19.6,0.00,,Haze,0,2013-12-06 21:53:00
2:04 PM,-2.2,-9.4,71,29.86,1.8,Variable,4.6,-,0.00,Snow,Light Snow,0,2013-12-06 22:04:00
2:12 PM,-2.2,-9.4,71,29.86,1.5,Variable,3.5,-,0.00,Snow,Light Snow,0,2013-12-06 22:12:00
2:30 PM,-2.2,-11.2,66,29.86,1.2,Variable,5.8,-,0.00,Snow,Light Snow,0,2013-12-06 22:30:00
2:53 PM,-5.1,-11.9,72,30.25,1.0,Variable,5.8,-,0.00,Snow,Light Snow,0,2013-12-06 22:53:00
3:21 PM,-5.8,-13.0,71,29.86,1.2,Variable,6.9,-,0.00,Snow,Light Snow,0,2013-12-06 23:21:00
3:41 PM,-7.6,-14.8,71,29.86,1.8,ESE,8.1,-,0.00,Snow,Light Snow,110,2013-12-06 23:41:00
3:53 PM,-8.0,-14.1,75,30.27,2.0,ESE,6.9,16.1,0.00,Snow,Light Snow,120,2013-12-06 23:53:00
4:11 PM,-7.6,-14.8,71,29.86,4.0,ESE,6.9,-,0.00,,Haze,110,2013-12-07 00:11:00
4:53 PM,-9.0,-14.1,79,30.28,10.0,ESE,10.4,18.4,0.00,,Scattered Clouds,120,2013-12-07 00:53:00
5:53 PM,-9.0,-15.0,75,30.29,10.0,ESE,9.2,19.6,N/A,,Clear,110,2013-12-07 01:53:00
6:53 PM,-9.0,-16.1,71,30.29,10.0,ESE,9.2,19.6,N/A,,Clear,120,2013-12-07 02:53:00
7:53 PM,-9.9,-16.1,74,30.29,10.0,ESE,10.4,21.9,N/A,,Clear,110,2013-12-07 03:53:00
8:53 PM,-9.9,-16.1,74,30.27,10.0,ESE,10.4,20.7,N/A,,Clear,110,2013-12-07 04:53:00
9:53 PM,-11.0,-17.0,75,30.25,10.0,ESE,11.5,19.6,N/A,,Clear,110,2013-12-07 05:53:00
10:53 PM,-11.0,-17.0,75,30.24,10.0,East,9.2,18.4,N/A,,Clear,100,2013-12-07 06:53:00
11:53 PM,-11.9,-18.0,74,30.22,10.0,ESE,6.9,23.0,N/A,,Clear,120,2013-12-07 07:53:00